This demonstration page uses our WeatherBlox Daily Observations layout. Learn more.

Left ArrowRight Arrow

38.88101, -77.10428

Hourly Observations for September 3, 2022

Temp ( °F °C ) Dew Point ( °F °C ) Humidity (%) Winds ( mph kmh ) Pressure ( in mb ) Visibility ( mi km ) Precip ( " mm )
12:52 am 00:52 Partly Cloudy 73 22.8 66 18.9 79 79 SE 6 9 30.25 1024 10 16 0.00 0.00
1:52 am 01:52 Mostly Clear 73 22.8 66 18.9 79 79 SE 7 11 30.24 1024 10 16 0.00 0.00
2:35 am 02:35 Mostly Cloudy 72 22.2 66 18.9 82 82 SSE 3 6 30.24 1024 10 16 0.00 0.00
2:52 am 02:52 Partly Cloudy 72 22.2 66 18.9 82 82 SE 5 7 30.24 1024 10 16 0.00 0.00
3:17 am 03:17 Mostly Cloudy 73 22.8 66 18.9 79 79 ESE 6 9 30.25 1024 10 16 0.00 0.00
3:50 am 03:50 Mostly Cloudy 73 23 66 19 78 78 ESE 7 11 30.25 1024 10 16 0.00 0.00
3:52 am 03:52 Mostly Cloudy 73 22.8 66 18.9 79 79 ESE 7 11 30.25 1024 10 16 0.00 0.00
4:12 am 04:12 Mostly Cloudy 73 22.8 66 18.9 79 79 ESE 6 9 30.25 1024 10 16 0.00 0.00
4:52 am 04:52 Mostly Cloudy 73 22.8 66 18.9 79 79 Calm 30.25 1024 10 16 0.00 0.00
5:52 am 05:52 Cloudy 73 22.8 66 18.9 79 79 NE 3 6 30.25 1024 10 16 0.00 0.00
6:11 am 06:11 Mostly Cloudy 73 22.8 67 19.4 81 81 ENE 7 11 30.25 1024 10 16 0.00 0.00
6:52 am 06:52 Mostly Cloudy 71 21.7 66 18.9 84 84 NE 5 7 30.26 1025 10 16 0.00 0.00
7:02 am 07:02 Mostly Cloudy 72 22.2 67 19.4 84 84 ENE 5 7 30.26 1025 10 16 0.00 0.00
7:21 am 07:21 Mostly Cloudy 72 22.2 67 19.4 84 84 ENE 3 6 30.27 1025 10 16 0.00 0.00
7:52 am 07:52 Mostly Cloudy 73 22.8 67 19.4 81 81 ENE 5 7 30.27 1025 10 16 0.00 0.00
8:52 am 08:52 Partly Cloudy 76 24.4 68 20 77 77 VRB 3 6 30.27 1025 10 16 0.00 0.00
9:52 am 09:52 Mostly Cloudy 79 26.1 69 20.6 72 72 SE 5 7 30.26 1025 10 16 0.00 0.00
10:52 am 10:52 Mostly Cloudy 82 27.8 70 21.1 67 67 SSE 7 11 30.27 1025 10 16 0.00 0.00
11:52 am 11:52 Mostly Cloudy 83 28.3 67 19.4 59 59 SSE 5 7 30.26 1025 10 16 0.00 0.00
12:52 pm 12:52 Mostly Cloudy 85 29.4 67 19.4 55 55 SSE 6 9 30.24 1024 10 16 0.00 0.00
1:52 pm 13:52 Mostly Cloudy 88 31.1 67 19.4 50 50 SSE 5 7 30.22 1024 10 16 0.00 0.00
2:52 pm 14:52 Mostly Cloudy 89 31.7 67 19.4 48 48 S 8 13 30.20 1023 10 16 0.00 0.00
3:52 pm 15:52 Mostly Cloudy 86 30 68 20 55 55 S 7 11 30.18 1022 10 16 0.00 0.00
4:52 pm 16:52 Mostly Cloudy 89 31.7 67 19.4 48 48 SSE 7 11 30.16 1021 10 16 0.00 0.00
5:52 pm 17:52 Mostly Cloudy 85 29.4 68 20 57 57 E 10 17 30.16 1021 10 16 0.00 0.00
6:52 pm 18:52 Mostly Cloudy 84 28.9 68 20 59 59 SSE 9 15 30.15 1021 10 16 0.00 0.00
7:52 pm 19:52 Mostly Cloudy 81 27.2 61 16.1 51 51 SSE 7 11 30.15 1021 10 16 0.00 0.00
8:52 pm 20:52 Partly Cloudy 79 26.1 61 16.1 54 54 S 3 6 30.16 1021 10 16 0.00 0.00
9:52 pm 21:52 Partly Cloudy 79 26.1 62 16.7 56 56 S 8 13 30.17 1022 10 16 0.00 0.00
10:52 pm 22:52 Partly Cloudy 77 25 65 18.3 66 66 S 8 13 30.17 1022 10 16 0.00 0.00
11:52 pm 23:52 Partly Cloudy 76 24.4 66 18.9 71 71 SSE 7 11 30.17 1022 10 16 0.00 0.00

Powered by AerisWeather